EW7351 Weather Reports


time (UTC)temp
C
wind
direction
speed
KPH
gust
KPH
rain 1hr
cm
rain 24hr
cm
rain mn
cm
humidity
%
barometer
mb
20260903162916 27 211 8.0 16.1 0.00 0.13 0.03 75 1012.9
20260903162355 27 129 6.4 16.1 0.00 0.13 0.03 76 1012.9
20260903161836 27 111 6.4 16.1 0.00 0.13 0.03 77 1012.8
20260903161335 27 245 6.4 16.1 0.00 0.13 0.03 76 1012.8
20260903160835 27 174 6.4 19.3 0.00 0.13 0.03 76 1012.8
20260903160314 27 121 6.4 19.3 0.00 0.13 0.03 77 1012.8
20260903155816 27 127 6.4 17.7 0.00 0.13 0.03 77 1012.8
20260903155525 27 136 8.0 17.7 0.00 0.13 0.03 77 1012.7
20260903155025 27 241 8.0 17.7 0.00 0.13 0.03 78 1012.7
20260903154303 27 184 8.0 17.7 0.00 0.13 0.03 79 1012.7
20260903153805 27 229 6.4 16.1 0.00 0.13 0.03 80 1012.7
20260903153236 26 204 4.8 12.9 0.00 0.13 0.03 81 1012.7
20260903152736 26 194 6.4 14.5 0.00 0.13 0.03 82 1012.7
20260903152500 26 137 4.8 14.5 0.00 0.13 0.03 82 1012.6
20260903152151 26 122 3.2 14.5 0.00 0.13 0.03 82 1012.7
20260903151155 26 141 6.4 14.5 0.00 0.13 0.03 83 1012.7
20260903150859 26 136 6.4 19.3 0.00 0.13 0.03 83 1012.7
20260903150132 26 139 6.4 19.3 0.00 0.13 0.03 83 1012.7
20260903145633 26 110 4.8 16.1 0.00 0.13 0.03 82 1012.7
20260903145132 26 105 4.8 16.1 0.00 0.13 0.03 82 1012.7
20260903144828 26 176 3.2 11.3 0.00 0.13 0.03 82 1012.7
20260903144044 26 190 1.6 14.5 0.00 0.13 0.03 82 1012.7
20260903143518 26 187 4.8 14.5 0.00 0.13 0.03 82 1012.7
20260903143015 26 150 4.8 17.7 0.00 0.13 0.03 82 1012.7
20260903142515 26 138 4.8 17.7 0.00 0.13 0.03 82 1012.7
20260903142008 26 136 6.4 14.5 0.00 0.13 0.03 83 1012.8
20260903141441 26 233 4.8 16.1 0.00 0.13 0.03 83 1012.7
20260903140940 26 139 4.8 12.9 0.00 0.13 0.03 83 1012.8
20260903140410 26 201 3.2 12.9 0.00 0.13 0.03 84 1012.9
20260903135904 26 161 3.2 12.9 0.00 0.13 0.03 84 1012.9
20260903135334 26 200 4.8 11.3 0.00 0.13 0.03 84 1012.8
20260903134831 26 112 4.8 11.3 0.00 0.13 0.03 85 1012.8
20260903134329 25 122 4.8 11.3 0.00 0.13 0.03 85 1012.8
20260903134249 25 144 4.8 14.5 0.00 0.13 0.03 85 1012.7
20260903133236 25 124 6.4 16.1 0.00 0.13 0.03 85 1012.7
20260903132736 25 164 6.4 16.1 0.00 0.13 0.03 85 1012.7
20260903132454 25 155 4.8 16.1 0.00 0.13 0.03 85 1012.8
20260903131930 25 124 4.8 16.1 0.00 0.13 0.03 85 1012.7
20260903131204 25 175 4.8 12.9 0.00 0.13 0.03 85 1012.6
20260903130635 25 134 3.2 11.3 0.00 0.13 0.03 85 1012.5
20260903130133 25 163 3.2 12.9 0.00 0.13 0.03 85 1012.5
20260903125605 25 86 4.8 12.9 0.00 0.13 0.03 86 1012.4
20260903125324 25 108 4.8 14.5 0.00 0.13 0.03 85 1012.4
20260903124551 25 124 4.8 14.5 0.00 0.13 0.03 85 1012.4
20260903124049 25 151 3.2 11.3 0.00 0.13 0.03 85 1012.4
20260903123527 25 146 4.8 14.5 0.00 0.13 0.03 85 1012.3
20260903123003 25 153 6.4 14.5 0.00 0.13 0.03 85 1012.2
20260903122938 25 106 6.4 14.5 0.00 0.13 0.03 85 1012.4
20260903122006 25 129 4.8 14.5 0.00 0.13 0.03 85 1012.4
20260903121503 25 134 4.8 12.9 0.00 0.13 0.03 85 1012.3
20260903121006 25 195 4.8 16.1 0.00 0.13 0.03 86 1012.2
20260903120437 25 134 3.2 16.1 0.00 0.13 0.03 86 1012.2
20260903115937 25 134 3.2 9.7 0.00 0.13 0.03 86 1012.2
20260903115408 25 110 3.2 9.7 0.00 0.13 0.03 86 1012.2
20260903114907 25 132 1.6 9.7 0.00 0.13 0.03 86 1012.1
20260903114352 25 194 1.6 9.7 0.00 0.13 0.03 86 1012.0
20260903113854 25 148 1.6 9.7 0.00 0.13 0.03 86 1011.9
20260903113325 25 170 1.6 9.7 0.00 0.13 0.03 86 1011.7
20260903113305 25 129 0.0 4.8 0.00 0.13 0.03 86 1012.0
20260903112257 25 131 1.6 4.8 0.00 0.13 0.03 86 1012.0
20260903111740 25 113 1.6 4.8 0.00 0.13 0.03 86 1012.0
20260903111235 25 221 1.6 4.8 0.00 0.13 0.03 86 1011.9
20260903110957 25 128 1.6 4.8 0.00 0.13 0.03 86 1011.9
20260903110231 24 191 1.6 4.8 0.00 0.13 0.03 86 1011.9
20260903105729 24 141 1.6 8.0 0.00 0.13 0.03 87 1012.0
20260903105444 24 143 1.6 12.9 0.00 0.13 0.03 87 1011.9
20260903104947 24 141 1.6 12.9 0.00 0.13 0.03 87 1011.7
20260903104159 24 152 3.2 12.9 0.00 0.13 0.03 87 1011.7
20260903103657 24 146 3.2 12.9 0.00 0.13 0.03 87 1011.7
20260903103129 24 220 3.2 9.7 0.00 0.13 0.03 87 1011.6
20260903102628 24 156 3.2 9.7 0.00 0.13 0.03 87 1011.6
20260903102615 24 127 3.2 8.0 0.00 0.13 0.03 87 1011.6
20260903101619 24 117 3.2 8.0 0.00 0.13 0.03 87 1011.6
20260903101341 24 128 1.6 8.0 0.00 0.13 0.03 87 1011.5
20260903100614 24 138 1.6 6.4 0.00 0.13 0.03 87 1011.5
20260903100110 24 125 1.6 6.4 0.00 0.13 0.03 87 1011.5
20260903095607 24 105 1.6 6.4 0.03 0.13 0.03 87 1011.6
20260903095056 24 141 3.2 9.7 0.03 0.13 0.03 86 1011.6
20260903094558 24 151 3.2 9.7 0.03 0.13 0.03 86 1011.7
20260903094049 24 158 1.6 9.7 0.03 0.13 0.03 86 1011.7
20260903093548 24 128 1.6 8.0 0.03 0.13 0.03 86 1011.6
20260903093020 24 115 1.6 8.0 0.03 0.13 0.03 86 1011.6
20260903092456 24 129 1.6 6.4 0.03 0.13 0.03 86 1011.6
20260903092144 24 116 1.6 6.4 0.03 0.13 0.03 86 1011.6
20260903091423 24 122 1.6 6.4 0.03 0.13 0.03 87 1011.6
20260903090925 24 117 0.0 9.7 0.03 0.13 0.03 87 1011.6
20260903090351 24 211 1.6 9.7 0.03 0.13 0.03 87 1011.3
20260903085827 24 264 3.2 12.9 0.03 0.13 0.03 87 1011.3
20260903085305 24 252 4.8 12.9 0.00 0.10 0.00 87 1011.4
20260903084733 24 227 4.8 9.7 0.00 0.10 0.00 87 1011.4
20260903084231 24 187 4.8 11.3 0.00 0.10 0.00 87 1011.4
20260903083704 24 176 4.8 11.3 0.00 0.10 0.00 87 1011.3
20260903083201 24 170 4.8 11.3 0.00 0.10 0.00 87 1011.3
20260903082700 24 217 3.2 11.3 0.00 0.10 0.00 87 1011.2
20260903082131 24 210 1.6 6.4 0.00 0.10 0.00 87 1011.3
20260903081630 24 156 1.6 4.8 0.00 0.10 0.00 87 1011.3
20260903081101 24 122 1.6 4.8 0.00 0.10 0.00 87 1011.3
20260903080558 24 138 0.0 4.8 0.00 0.10 0.00 87 1011.3
20260903080034 24 151 1.6 6.4 0.00 0.10 0.00 87 1011.3
20260903075506 24 115 1.6 8.0 0.00 0.10 0.00 87 1011.3
20260903075006 24 120 1.6 8.0 0.00 0.10 0.00 86 1011.2
20260903074503 24 114 0.0 4.8 0.00 0.10 0.00 86 1011.1
20260903074004 24 113 0.0 6.4 0.00 0.10 0.00 85 1011.1
20260903073437 25 129 1.6 6.4 0.00 0.10 0.00 85 1011.1
20260903072932 25 108 1.6 6.4 0.00 0.10 0.00 84 1011.2
20260903072432 25 122 0.0 6.4 0.00 0.10 0.00 83 1011.3
20260903071900 25 122 1.6 8.0 0.00 0.10 0.00 82 1011.3
20260903071338 25 113 1.6 9.7 0.00 0.10 0.00 81 1011.4
20260903070837 25 139 4.8 16.1 0.00 0.10 0.00 81 1011.4
20260903070337 25 124 6.4 17.7 0.00 0.10 0.00 79 1011.4
20260903065810 26 113 4.8 14.5 0.00 0.10 0.00 78 1011.4
20260903065241 26 87 3.2 14.5 0.00 0.10 0.00 76 1011.4
20260903065002 26 99 3.2 11.3 0.00 0.10 0.00 76 1011.4
20260903064458 26 115 1.6 11.3 0.00 0.10 0.00 75 1011.4
20260903063733 26 98 1.6 6.4 0.00 0.10 0.00 75 1011.4
20260903063205 26 109 0.0 6.4 0.00 0.10 0.00 75 1011.3
20260903062701 26 123 0.0 1.6 0.00 0.10 0.00 75 1011.3
20260903062138 26 123 0.0 3.2 0.00 0.10 0.00 75 1011.2
20260903061608 26 126 0.0 3.2 0.00 0.10 0.00 75 1011.3
20260903061107 26 126 1.6 9.7 0.00 0.10 0.00 75 1011.4
20260903060541 26 127 3.2 11.3 0.00 0.10 0.00 75 1011.4
20260903060037 26 124 3.2 11.3 0.00 0.10 0.00 75 1011.5
20260903055536 26 116 1.6 8.0 0.00 0.10 0.00 75 1011.6
20260903055009 26 127 1.6 6.4 0.00 0.10 0.00 75 1011.9
20260903054443 26 117 3.2 11.3 0.00 0.10 0.00 75 1012.0
20260903053921 26 117 3.2 12.9 0.00 0.10 0.00 74 1012.0
20260903053358 26 59 3.2 12.9 0.00 0.10 0.00 74 1012.0
20260903052835 26 107 3.2 16.1 0.00 0.10 0.00 73 1012.0
20260903052332 26 97 1.6 16.1 0.00 0.10 0.00 73 1012.1
20260903051833 26 105 0.0 8.0 0.00 0.10 0.00 72 1012.1
20260903051335 26 86 0.0 8.0 0.00 0.10 0.00 72 1012.0
20260903050829 26 129 0.0 11.3 0.00 0.10 0.00 72 1012.1
20260903050331 26 108 1.6 11.3 0.00 0.10 0.00 71 1012.2
20260903045807 26 120 3.2 14.5 0.00 0.10 0.10 71 1012.4
20260903045455 26 123 3.2 14.5 0.00 0.10 0.10 71 1012.3
20260903044707 26 123 3.2 19.3 0.00 0.10 0.10 70 1012.3
20260903044204 27 119 4.8 19.3 0.00 0.10 0.10 69 1012.3
20260903043921 27 115 8.0 19.3 0.00 0.10 0.10 69 1012.3
20260903043638 27 108 6.4 19.3 0.00 0.10 0.10 69 1012.2
20260903042652 27 132 6.4 17.7 0.00 0.10 0.10 69 1012.2
20260903042124 27 84 4.8 16.1 0.00 0.10 0.10 68 1012.2
20260903041622 27 28 3.2 11.3 0.00 0.10 0.10 68 1012.3
20260903041318 27 51 4.8 14.5 0.00 0.10 0.10 67 1012.3
20260903040751 27 108 4.8 12.9 0.00 0.10 0.10 66 1012.3
20260903040002 27 58 3.2 14.5 0.00 0.10 0.10 67 1012.3
20260903035458 27 116 3.2 14.5 0.00 0.10 0.10 66 1012.3
20260903034958 27 121 3.2 11.3 0.00 0.10 0.10 66 1012.3
20260903034428 27 58 3.2 12.9 0.00 0.10 0.10 66 1012.3
20260903033928 28 125 4.8 12.9 0.00 0.10 0.10 65 1012.3
20260903033617 28 128 4.8 11.3 0.00 0.10 0.10 65 1012.2
20260903032852 28 134 3.2 9.7 0.00 0.10 0.10 64 1012.1
20260903032827 28 127 1.6 9.7 0.00 0.10 0.10 64 1012.1
20260903031842 28 135 3.2 9.7 0.00 0.10 0.10 63 1012.1
20260903031338 28 115 3.2 11.3 0.00 0.10 0.10 62 1012.0
20260903030837 28 127 4.8 11.3 0.00 0.10 0.10 62 1012.1
20260903030337 28 118 4.8 12.9 0.00 0.10 0.10 62 1012.1
20260903025834 28 81 6.4 14.5 0.00 0.10 0.10 61 1012.1
20260903025805 28 129 6.4 14.5 0.00 0.10 0.10 61 1012.1
20260903024821 28 89 6.4 12.9 0.00 0.10 0.10 61 1012.1
20260903024309 29 193 6.4 22.5 0.00 0.10 0.10 60 1012.0
20260903023806 29 164 8.0 22.5 0.00 0.10 0.10 59 1012.0
20260903023309 29 115 9.7 22.5 0.00 0.10 0.10 59 1011.9
20260903023003 29 128 8.0 17.7 0.00 0.10 0.10 59 1011.7
20260903022228 29 131 8.0 17.7 0.00 0.10 0.10 58 1011.9
20260903021730 29 131 6.4 17.7 0.00 0.10 0.10 58 1011.7
20260903021202 30 85 6.4 14.5 0.00 0.10 0.10 58 1011.5
20260903020701 30 127 8.0 20.9 0.00 0.10 0.10 57 1011.5
20260903020351 30 156 9.7 22.5 0.00 0.10 0.10 57 1011.4
20260903015609 30 120 9.7 22.5 0.00 0.10 0.10 56 1011.3
20260903015040 30 122 9.7 24.1 0.00 0.10 0.10 55 1011.2
20260903014512 31 135 8.0 24.1 0.00 0.10 0.10 54 1011.1
20260903014011 31 121 8.0 14.5 0.00 0.10 0.10 54 1011.0
20260903013443 31 120 6.4 14.5 0.00 0.10 0.10 53 1010.9
20260903012942 31 139 6.4 14.5 0.00 0.10 0.10 53 1010.8
20260903012417 31 91 3.2 14.5 0.00 0.10 0.10 52 1010.7
20260903011844 31 120 1.6 12.9 0.00 0.10 0.10 51 1010.6
20260903011342 31 115 1.6 12.9 0.00 0.10 0.10 51 1010.5
20260903010841 31 115 1.6 9.7 0.00 0.10 0.10 51 1010.5
20260903010328 31 101 1.6 9.7 0.00 0.10 0.10 50 1010.5
20260903005831 31 121 3.2 9.7 0.00 0.10 0.10 50 1010.4
20260903005302 31 113 3.2 14.5 0.00 0.10 0.10 50 1010.4
20260903004735 31 120 3.2 14.5 0.00 0.10 0.10 49 1010.4
20260903004430 31 130 3.2 12.9 0.00 0.10 0.10 50 1010.4
20260903003711 31 110 1.6 9.7 0.00 0.10 0.10 51 1010.4
20260903003136 31 249 1.6 9.7 0.00 0.10 0.10 52 1010.3
20260903002635 32 115 1.6 9.7 0.00 0.10 0.10 51 1010.3
20260903002106 32 125 1.6 9.7 0.00 0.10 0.10 51 1010.3
20260903001732 32 122 1.6 6.4 0.00 0.10 0.10 53 1010.2
20260903001616 32 83 1.6 9.7 0.00 0.10 0.10 52 1010.2
20260903000753 32 123 1.6 6.4 0.00 0.10 0.10 54 1010.2
20260903000003 31 130 1.6 11.3 0.00 0.10 0.10 56 1010.2
20260902235500 31 130 1.6 11.3 0.00 0.10 0.10 57 1010.2
20260902234957 31 95 0.0 11.3 0.00 0.10 0.10 58 1010.2
20260902234647 31 129 0.0 1.6 0.00 0.10 0.10 63 1010.1
20260902233909 31 219 0.0 1.6 0.00 0.10 0.10 63 1010.1
20260902233336 31 219 0.0 0.0 0.10 0.10 0.10 65 1010.2
20260902233104 31 214 0.0 0.0 0.10 0.10 0.10 66 1010.1
20260902232326 30 214 0.0 0.0 0.10 0.10 0.10 67 1010.1
20260902231825 30 214 0.0 0.0 0.10 0.10 0.10 66 1010.2
20260902231256 30 214 0.0 1.6 0.10 0.10 0.10 67 1010.2
20260902230753 30 214 0.0 1.6 0.10 0.10 0.10 66 1010.1
20260902230510 30 214 0.0 9.7 0.10 0.10 0.10 66 1010.2
20260902225744 30 214 1.6 9.7 0.10 0.10 0.10 64 1010.2
20260902225217 30 215 3.2 14.5 0.10 0.10 0.10 65 1010.2
20260902224715 30 235 8.0 14.5 0.10 0.10 0.10 62 1010.1
20260902224209 30 214 11.3 20.9 0.10 0.10 0.10 61 1010.1
20260902223707 30 238 12.9 27.4 0.08 0.08 0.10 57 1010.2
20260902223140 33 121 9.7 25.7 0.00 0.00 0.00 51 1010.3
20260902222615 37 85 4.8 22.5 0.00 0.00 0.00 36 1010.0
20260902222049 38 140 1.6 9.7 0.00 0.00 0.00 34 1009.7
20260902221748 37 64 1.6 14.5 0.00 0.00 0.00 34 1009.7
20260902220954 38 293 1.6 14.5 0.00 0.00 0.00 34 1009.7
20260902220454 38 35 1.6 14.5 0.00 0.00 0.00 35 1009.7
20260902215926 37 352 1.6 14.5 0.00 0.00 0.00 33 1009.8
20260902215843 38 68 1.6 9.7 0.00 0.00 0.00 33 1009.8
20260902214836 38 167 1.6 9.7 0.00 0.00 0.00 32 1009.9
20260902214334 38 97 1.6 9.7 0.00 0.00 0.00 33 1010.0
20260902213809 38 121 1.6 9.7 0.00 0.00 0.00 32 1010.0
20260902213304 38 19 1.6 11.3 0.00 0.00 0.00 33 1010.1
20260902212802 38 46 3.2 14.5 0.00 0.00 0.00 32 1010.0
20260902212251 38 99 4.8 14.5 0.00 0.00 0.00 33 1010.2
20260902211754 38 119 4.8 17.7 0.00 0.00 0.00 34 1010.2
20260902211514 37 340 3.2 17.7 0.00 0.00 0.00 34 1010.2
20260902211014 37 6 1.6 12.9 0.00 0.00 0.00 35 1010.2
20260902210224 38 127 3.2 12.9 0.00 0.00 0.00 33 1010.4
20260902205659 38 68 3.2 14.5 0.00 0.00 0.00 33 1010.4
20260902205130 38 118 1.6 14.5 0.00 0.00 0.00 33 1010.4
20260902204617 38 121 1.6 9.7 0.00 0.00 0.00 34 1010.5
20260902204050 38 258 1.6 14.5 0.00 0.00 0.00 33 1010.6
20260902203549 38 328 1.6 14.5 0.00 0.00 0.00 33 1010.6
20260902203050 37 64 3.2 11.3 0.00 0.00 0.00 33 1010.8
20260902202546 37 8 3.2 11.3 0.00 0.00 0.00 34 1010.9
20260902202528 38 335 3.2 9.7 0.00 0.00 0.00 32 1010.9
20260902201519 38 153 3.2 12.9 0.00 0.00 0.00 36 1011.0
20260902201012 37 15 4.8 12.9 0.00 0.00 0.00 35 1011.0
20260902200452 37 94 3.2 12.9 0.00 0.00 0.00 35 1011.2
20260902195951 37 93 1.6 11.3 0.00 0.00 0.00 34 1011.4
20260902195451 37 63 1.6 6.4 0.00 0.00 0.00 33 1011.4
20260902195433 37 55 1.6 9.7 0.00 0.00 0.00 35 1011.6
20260902194452 37 49 1.6 9.7 0.00 0.00 0.00 35 1011.6
20260902193949 36 138 3.2 9.7 0.00 0.00 0.00 35 1011.7
20260902193444 36 358 3.2 12.9 0.00 0.00 0.00 35 1011.9
20260902192935 37 343 1.6 12.9 0.00 0.00 0.00 35 1012.0
20260902192435 37 75 1.6 11.3 0.00 0.00 0.00 34 1012.0
20260902192200 37 66 1.6 9.7 0.00 0.00 0.00 36 1012.1
20260902191433 37 129 1.6 9.7 0.00 0.00 0.00 36 1012.1
20260902190935 36 142 1.6 8.0 0.00 0.00 0.00 38 1012.3
20260902190650 37 11 1.6 9.7 0.00 0.00 0.00 36 1012.3
20260902185934 37 134 3.2 11.3 0.00 0.00 0.00 37 1012.3
20260902185419 37 105 1.6 11.3 0.00 0.00 0.00 37 1012.5
20260902184857 36 81 1.6 11.3 0.00 0.00 0.00 40 1012.5
20260902184358 36 42 1.6 8.0 0.00 0.00 0.00 38 1012.7
20260902183844 35 70 3.2 16.1 0.00 0.00 0.00 40 1012.8
20260902183606 35 354 3.2 16.1 0.00 0.00 0.00 40 1012.8
20260902182841 35 82 3.2 12.9 0.00 0.00 0.00 39 1012.9
20260902182325 35 58 3.2 16.1 0.00 0.00 0.00 40 1013.0
20260902182315 36 356 3.2 16.1 0.00 0.00 0.00 36 1013.2
20260902181259 36 354 3.2 12.9 0.00 0.00 0.00 42 1013.2
20260902180951 35 70 1.6 8.0 0.00 0.00 0.00 43 1013.4
20260902180216 35 0 1.6 9.7 0.00 0.00 0.00 44 1013.5
20260902175714 35 82 3.2 12.9 0.00 0.00 0.00 43 1013.6
20260902175152 34 13 6.4 12.9 0.00 0.00 0.00 43 1013.8
20260902174632 34 354 3.2 14.5 0.00 0.00 0.00 43 1014.0
20260902174108 35 83 3.2 14.5 0.00 0.00 0.00 42 1013.9
20260902173603 35 39 1.6 9.7 0.00 0.00 0.00 46 1014.0
20260902173102 35 43 1.6 9.7 0.00 0.00 0.00 44 1014.0
20260902172536 35 125 1.6 9.7 0.00 0.00 0.00 45 1014.2
20260902172254 35 82 1.6 9.7 0.00 0.00 0.00 44 1014.3
20260902171529 35 124 3.2 9.7 0.00 0.00 0.00 45 1014.3
20260902171029 34 167 3.2 12.9 0.00 0.00 0.00 46 1014.5
20260902170501 34 97 1.6 12.9 0.00 0.00 0.00 48 1014.6
20260902165958 33 98 0.0 6.4 0.00 0.00 0.00 49 1014.6
20260902165427 33 53 1.6 11.3 0.00 0.00 0.00 51 1014.7
20260902164916 33 148 3.2 11.3 0.00 0.00 0.00 52 1014.8
20260902164413 33 342 3.2 11.3 0.00 0.00 0.00 49 1014.9
20260902163909 33 141 1.6 8.0 0.00 0.00 0.00 48 1015.0
20260902163409 33 255 1.6 11.3 0.00 0.00 0.00 50 1015.0